User: anonymous   Login
Location: Unspecified
(0.0000°N, 0.0000°E)
Time: 10:34:23
(UTC+00:00)
Language:

USA 78 - Orbit

View from above orbital plane
View from above orbital plane
View from above satellite
View from above satellite

Ground track
Ground track

The orbit data is extracted from the following two-line orbital elements,

1 21873U 92006A   18224.75083835 0.00000000  00000-0  00000-0 0    07
2 21873  13.6863  25.1942 0010113 294.0313  65.8749  0.99040888    06
Epoch (UTC): 12 August 2018 18:01:12
Eccentricity: 0.0010113
inclination: 13.6863°
perigee height: 36092 km
apogee height: 36178 km
right ascension of ascending node: 25.1942°
argument of perigee: 294.0313°
revolutions per day: 0.99040888
mean anomaly at epoch: 65.8749°
orbit number at epoch: 0

The dashed part of the orbit path shows where the satellite is in the earth's shadow,  

DLR